Location: Altenst�hlen
(53.5567°N, 8.9425°E)
Time: 06:07:26
(UTC+00:00)

STARLINK-27 - Pass Details

Date: 23 October 2019
Orbit: 548 x 551 km, 53.0° (Epoch: 18 November)

Event Time Altitude Azimuth Distance (km) Brightness Sun altitude
Rises 17:45:28 0° 276° (W) 2,720 9.1 -14.7°
Reaches altitude 10° 17:47:42 10° 275° (W) 1,826 7.7 -15.0°
Maximum altitude 17:51:51 78° 189° (S) 566 3.6 -15.6°
Enters shadow 17:53:49 30° 107° (ESE) 1,000 4.4 -15.9°
